Regional Weather Roundup
Issued by NWS

Home | Current Version | Previous Version | Text Only | Print | Product List | Glossary Off
Versions: 1 2 3 4 5 6 7 8 9 10 11 12 13 14 15 16 17 18 19 20 21 22 23 24 25 26 27 28 29 30 31 32 33 34 35 36 37 38 39 40 41 42 43 44 45 46 47 48 49 50

000
ASUS43 KLMK 262210
RWRKY
KENTUCKY REGIONAL WEATHER ROUNDUP
NATIONAL WEATHER SERVICE LOUISVILLE KY
600 PM EDT THU MAR 26 2015

NOTE "FAIR" INDICATES FEW OR NO CLOUDS BELOW 12,000 FEET
WITH NO SIGNIFICANT WEATHER AND/OR OBSTRUCTIONS TO VISIBILITY.

KYZ001>023-026-027-061>063-070>075-262300-
WESTERN AND SOUTH CENTRAL KENTUCKY

CITY           SKY/WX    TMP DP  RH WIND       PRES   REMARKS
PADUCAH        CLOUDY    45  36  70 N13G21    30.01R
HENDERSON      CLOUDY    45  36  70 NW13      29.98S
OWENSBORO      CLOUDY    44  37  76 N12       29.97F
HOPKINSVILLE   CLOUDY    43  39  87 N8        29.96S
BOWLING GREEN  CLOUDY    46  41  82 N8        29.94F
GLASGOW        DRIZZLE   45  42  91 N13       29.92S
$$

KYZ024-025-028>034-038-045-046-053-262300-
NORTH CENTRAL KENTUCKY

CITY           SKY/WX    TMP DP  RH WIND       PRES   REMARKS
LOUISVILLE/SDF CLOUDY    46  39  76 NW8       29.93S
LOUISVILLE/LOU CLOUDY    45  41  86 NW9       29.93S
FORT KNOX      CLOUDY    43  40  92 NW6       29.91F
$$

KYZ035>037-039>044-047>052-055>060-089>105-262300-
NORTHEAST KENTUCKY

CITY           SKY/WX    TMP DP  RH WIND       PRES   REMARKS
LEXINGTON      LGT RAIN  44  42  93 NW13      29.91R FOG
COVINGTON      CLOUDY    43  36  76 NW12      29.90R
FRANKFORT      CLOUDY    45  41  86 NW9       29.91R
$$

KYZ054-064>069-076>088-106>120-262300-
SOUTHEAST KENTUCKY

CITY           SKY/WX    TMP DP  RH WIND       PRES   REMARKS
JACKSON        LGT RAIN  45  42  89 VRB6      29.84R FOG
LONDON         RAIN      47  42  83 N9        29.85R
SOMERSET       CLOUDY    45  45 100 N10G17    29.88S
MIDDLESBORO    CLOUDY    56  52  86 N9        29.81R
MONTICELLO     CLOUDY    48  46  93 NW10      29.90R FOG
$$



USA.gov is the U.S. government's official web portal to all federal, state and local government web resources and services.